This demonstration page uses our WeatherBlox Daily Observations layout. Learn more.

Left ArrowRight Arrow

36.19886, -115.1175

Hourly Observations for November 13, 2021

Temp ( °F °C ) Dew Point ( °F °C ) Humidity (%) Winds ( mph kmh ) Pressure ( in mb ) Visibility ( mi km ) Precip ( " mm )
12:53 am 00:53 Clear 59 15 31 -0.6 35 35 NNW 6 9 30.20 1023 10 16 0.00 0.00
1:53 am 01:53 Clear 60 15.6 32 0 35 35 NW 3 6 30.20 1023 10 16 0.00 0.00
2:53 am 02:53 Clear 60 15.6 31 -0.6 33 33 W 7 11 30.19 1023 10 16 0.00 0.00
3:53 am 03:53 Clear 59 15 28 -2.2 31 31 NW 9 15 30.19 1022 10 16 0.00 0.00
4:53 am 04:53 Clear 58 14.4 28 -2.2 32 32 Calm 30.20 1023 10 16 0.00 0.00
5:53 am 05:53 Clear 57 13.9 29 -1.7 34 34 Calm 30.22 1023 10 16 0.00 0.00
6:53 am 06:53 Sunny 58 14.4 30 -1.1 35 35 N 3 6 30.24 1024 10 16 0.00 0.00
7:53 am 07:53 Sunny 63 17.2 32 0 31 31 W 6 9 30.25 1025 10 16 0.00 0.00
8:53 am 08:53 Sunny 69 20.6 32 0 25 25 NNW 6 9 30.25 1024 10 16 0.00 0.00
9:53 am 09:53 Sunny 71 21.7 33 0.6 25 25 VRB 3 6 30.26 1025 10 16 0.00 0.00
10:53 am 10:53 Sunny 73 22.8 33 0.6 23 23 SE 5 7 30.23 1024 10 16 0.00 0.00
11:53 am 11:53 Sunny 76 24.4 34 1.1 22 22 VRB 3 6 30.19 1022 10 16 0.00 0.00
12:53 pm 12:53 Sunny 77 25 34 1.1 21 21 SSE 5 7 30.16 1021 10 16 0.00 0.00
1:53 pm 13:53 Sunny 79 26.1 33 0.6 19 19 S 3 6 30.14 1021 10 16 0.00 0.00
2:53 pm 14:53 Sunny 80 26.7 33 0.6 18 18 Calm 30.13 1020 10 16 0.00 0.00
3:53 pm 15:53 Sunny 80 26.7 33 0.6 18 18 Calm 30.14 1021 10 16 0.00 0.00
4:53 pm 16:53 Clear 75 23.9 32 0 21 21 Calm 30.15 1021 10 16 0.00 0.00
5:53 pm 17:53 Clear 70 21.1 34 1.1 27 27 W 5 7 30.17 1022 10 16 0.00 0.00
6:53 pm 18:53 Clear 68 20 37 2.8 32 32 WNW 7 11 30.18 1022 10 16 0.00 0.00
7:53 pm 19:53 Clear 65 18.3 36 2.2 34 34 WNW 6 9 30.18 1022 10 16 0.00 0.00
8:53 pm 20:53 Clear 64 17.8 36 2.2 35 35 WNW 7 11 30.18 1022 10 16 0.00 0.00
9:53 pm 21:53 Clear 63 17.2 34 1.1 34 34 W 3 6 30.20 1023 10 16 0.00 0.00
10:53 pm 22:53 Clear 63 17.2 33 0.6 33 33 NW 3 6 30.21 1023 10 16 0.00 0.00
11:53 pm 23:53 Clear 65 18.3 25 -3.9 22 22 WNW 8 13 30.21 1023 10 16 0.00 0.00

Powered by AerisWeather